"Pseudo-MPEC" for RdSH237

Created 2023 Nov 30 6:22:07 UT using Find_Orb

Click here for an explanation of pseudo-MPECs

 
 Astrometry: 
     RdSH237*KB2023 11 18XA_df;Q7AstrometryP$#MIE,\'E2/]#YjS?Wredacted;kbJ,tEY89
     RdSH237 KB2023 11 18E^clickf:5WD9ZLZ2Sa1eJherenB^_u#p@for?u9t%R`@g[RjQ2*Y89
     RdSH237 KB2023 11 18N4IR\k6uAnla3gh'amYgFt,[Lv39explanationSqggA?#20yS$kY89

Station data:
(Y89) Proxima Centauri Observatory, Valdin  (N42.222443 W6.988110)  Spain.

Orbital elements:  RdSH237
   Perihelion 2028 Feb 18.06365 +/- 1766 TT =  1:31:39 (JD 2461819.56365)
Epoch 2023 Nov 19.0 TT = JDT 2460267.5   Sa: 0.8907              AutoNEOCP
M 317.79974713 +/- 60               (J2000 ecliptic)
n   0.02718976 +/- 0.0649           Peri.  109.48296 +/- 90
a  10.9529817 +/- 17.4              Node    13.80895 +/- 31
e   0.3287803 +/- 0.225             Incl.   19.22606 +/- 46
P  36.25                   H 11.62  G  0.15   U 10.9  SR
q 7.35185637 +/- 3.34    Q 14.5541072 +/- 258
From 3 observations 2023 Nov. 18 (42.7 min); mean residual 0".35
Residuals in arcseconds: 
231118 Y89  .01+  .36+    231118 Y89  .01-  .71-    231118 Y89  .00   .35+    

Ephemerides (geocentric):
Date (UTC) HH   RA             Dec           delta  r     elong  mag " sig PA
---- --------  ------------   ------------  ------ ------ -----  --- --------
2023 11 30 06  02 28 25.659   +27 01 22.97  8.1430 9.0363 153.5 21.2 1679  83
2023 11 30 07  02 28 24.887   +27 01 19.74  8.1432 9.0363 153.5 21.2 1688  83
2023 11 30 08  02 28 24.114   +27 01 16.52  8.1434 9.0362 153.4 21.2 1696  83
2023 11 30 09  02 28 23.343   +27 01 13.29  8.1436 9.0361 153.4 21.2 1705  83
2023 11 30 10  02 28 22.571   +27 01 10.06  8.1438 9.0361 153.3 21.2 1714  83
2023 11 30 11  02 28 21.801   +27 01 06.83  8.1440 9.0360 153.3 21.2 1722  83
2023 11 30 12  02 28 21.030   +27 01 03.60  8.1443 9.0359 153.3 21.2 1731  83
2023 11 30 13  02 28 20.261   +27 01 00.37  8.1445 9.0358 153.2 21.2 1740  83
2023 11 30 14  02 28 19.492   +27 00 57.13  8.1447 9.0358 153.2 21.2 1748  83
2023 11 30 15  02 28 18.723   +27 00 53.90  8.1449 9.0357 153.1 21.2 1757  83
2023 11 30 16  02 28 17.955   +27 00 50.67  8.1451 9.0356 153.1 21.2 1766  83
2023 11 30 17  02 28 17.187   +27 00 47.43  8.1453 9.0355 153.1 21.2 1775  83
2023 11 30 18  02 28 16.420   +27 00 44.20  8.1456 9.0355 153.0 21.2 1783  83
2023 11 30 19  02 28 15.653   +27 00 40.96  8.1458 9.0354 153.0 21.2 1792  83
2023 11 30 20  02 28 14.887   +27 00 37.73  8.1460 9.0353 152.9 21.2 1801  83
2023 11 30 21  02 28 14.121   +27 00 34.49  8.1462 9.0353 152.9 21.2 1810  83
2023 11 30 22  02 28 13.356   +27 00 31.25  8.1464 9.0352 152.8 21.2 1819  83
2023 11 30 23  02 28 12.591   +27 00 28.01  8.1467 9.0351 152.8 21.3 1828  83
2023 12 01 00  02 28 11.827   +27 00 24.77  8.1469 9.0350 152.8 21.3 1837  83
2023 12 01 01  02 28 11.063   +27 00 21.53  8.1471 9.0350 152.7 21.3 1846  83
2023 12 01 02  02 28 10.300   +27 00 18.29  8.1473 9.0349 152.7 21.3 1854  83
2023 12 01 03  02 28 09.537   +27 00 15.05  8.1475 9.0348 152.6 21.3 1863  83
2023 12 01 04  02 28 08.775   +27 00 11.81  8.1478 9.0347 152.6 21.3 1872  83
2023 12 01 05  02 28 08.013   +27 00 08.57  8.1480 9.0347 152.6 21.3 1881  83
2023 12 01 06  02 28 07.252   +27 00 05.33  8.1482 9.0346 152.5 21.3 1890  83
2023 12 01 07  02 28 06.491   +27 00 02.09  8.1484 9.0345 152.5 21.3 1900  83
2023 12 01 08  02 28 05.731   +26 59 58.84  8.1487 9.0344 152.4 21.3 1909  83
2023 12 01 09  02 28 04.971   +26 59 55.60  8.1489 9.0344 152.4 21.3 1918  83
2023 12 01 10  02 28 04.212   +26 59 52.35  8.1491 9.0343 152.4 21.3 1927  83
2023 12 01 11  02 28 03.454   +26 59 49.11  8.1493 9.0342 152.3 21.3 1936  83
2023 12 01 12  02 28 02.696   +26 59 45.86  8.1496 9.0342 152.3 21.3 1945  83
2023 12 01 13  02 28 01.938   +26 59 42.62  8.1498 9.0341 152.2 21.3 1954  83
2023 12 01 14  02 28 01.181   +26 59 39.37  8.1500 9.0340 152.2 21.3 1964  83
2023 12 01 15  02 28 00.424   +26 59 36.12  8.1503 9.0339 152.2 21.3 1973  83
2023 12 01 16  02 27 59.668   +26 59 32.87  8.1505 9.0339 152.1 21.3 1982  83
2023 12 01 17  02 27 58.913   +26 59 29.62  8.1507 9.0338 152.1 21.3 1991  83
2023 12 01 18  02 27 58.158   +26 59 26.37  8.1509 9.0337 152.0 21.3 2001  83
2023 12 01 19  02 27 57.403   +26 59 23.12  8.1512 9.0336 152.0 21.3 2010  83
2023 12 01 20  02 27 56.649   +26 59 19.87  8.1514 9.0336 152.0 21.3 2019  83
2023 12 01 21  02 27 55.896   +26 59 16.62  8.1516 9.0335 151.9 21.3 2029  83
2023 12 01 22  02 27 55.143   +26 59 13.37  8.1519 9.0334 151.9 21.3 2038  83
2023 12 01 23  02 27 54.390   +26 59 10.12  8.1521 9.0334 151.8 21.3 2047  83
2023 12 02 00  02 27 53.638   +26 59 06.87  8.1523 9.0333 151.8 21.3 2057  83
2023 12 02 01  02 27 52.887   +26 59 03.62  8.1526 9.0332 151.8 21.3 2066  83
2023 12 02 02  02 27 52.136   +26 59 00.36  8.1528 9.0331 151.7 21.3 2076  83
2023 12 02 03  02 27 51.386   +26 58 57.11  8.1530 9.0331 151.7 21.3 2085  83
2023 12 02 04  02 27 50.636   +26 58 53.85  8.1533 9.0330 151.6 21.3 2095  83
2023 12 02 05  02 27 49.887   +26 58 50.60  8.1535 9.0329 151.6 21.3 2104  83